Regional Weather Roundup
Issued by NWS

Home | Current Version | Previous Version | Graphics & Text | Print | Product List | Glossary On
Versions: 1 2 3 4 5 6 7 8 9 10 11 12 13 14 15 16 17 18 19 20 21 22 23 24 25 26 27
000
ASUS45 KBOU 290410
RWRCO

WEATHER ROUNDUP FOR COLORADO
NATIONAL WEATHER SERVICE DENVER/BOULDER CO
1000 PM MDT WED SEP 28 2016

NOTE: "FAIR" INDICATES FEW OR NO CLOUDS BELOW 12000 FEET WITH NO
SIGNIFICANT WEATHER AND/OR OBSTRUCTIONS TO VISIBILITY.

COZ001>005-013-030-031-290500-
...NORTHWEST COLORADO...

CITY           SKY/WX    TMP DP  RH WIND       PRES   REMARKS
CRAIG          FAIR      56  40  55 VRB3      30.30S
HAYDEN         MOCLDY    66  34  30 SE5       30.32S
MEEKER         MOCLDY    62  39  42 CALM      30.31S
MOUNT WERNER   NOT AVBL
STEAMBOAT SPGS FAIR      62  36  37 E7        30.36R
WALDEN           N/A     54  28  37 SE7       30.46S
$$

COZ006>008-011-290500-
...WEST CENTRAL VALLEYS...

CITY           SKY/WX    TMP DP  RH WIND       PRES   REMARKS
GRAND JUNCTION FAIR      69  38  32 SE6       30.21R
MONTROSE       FAIR      65  40  39 NE8       30.31R
EAGLE          FAIR      64  34  32 SE3       30.35R
RIFLE          FAIR      64  40  41 SE5       30.26R
DELTA          NOT AVBL
NUCLA          FAIR      68  36  30 E8        30.35R
$$

COZ017>023-064>068-290500-
...SOUTHWEST COLORADO...

CITY           SKY/WX    TMP DP  RH WIND       PRES   REMARKS
DURANGO        CLOUDY    64  39  39 CALM      30.37R
CORTEZ         CLOUDY    61  50  67 NE6       30.33R
PAGOSA SPRINGS MOCLDY    56  32  40 CALM      30.46R
TELLURIDE      FAIR      59  32  36 SE6       30.53S
WOLF CREEK PAS MOCLDY    45  27  49 MISG      30.76R
$$

COZ009-010-012-014-032>034-037-058>063-290500-
...CENTRAL COLORADO...

CITY           SKY/WX    TMP DP  RH WIND       PRES   REMARKS
ASPEN          FAIR      59  28  30 S9        30.42R
BUENA VISTA    FAIR      49  26  41 CALM      30.51S
COPPER MTN     FAIR      48  23  37 SE15      30.74F
BERTHOUD PASS  FAIR      36  23  60 E36G43    30.76R
COTTONWOOD PAS FAIR      57  21  24 SE15G21   30.62S
GUNNISON       CLOUDY    61  25  25 N3        30.44R
KREMMLING      FAIR      61  23  23 E12       30.43R
LEADVILLE      FAIR      49  24  37 CALM      30.61R
MONARCH PASS   FAIR      43  27  52 NE15      30.84S
SALIDA         FAIR      62  28  27 SE3       30.55R
SUNLIGHT       CLOUDY    54  28  37 SE3       30.66R
WILKERSON PASS FAIR      45  23  42 S16G24    30.74S
$$

COZ069>075-290500-
...SAN LUIS VALLEY/SANGRE DE CRISTO MOUNTAINS...

CITY           SKY/WX    TMP DP  RH WIND       PRES   REMARKS
ALAMOSA        FAIR      54  26  34 S9        30.46R
LA VETA PASS   FAIR      50  23  34 MISG      30.65R
SAGUACHE       NOT AVBL
$$

COZ035-036-038>040-290500-
...NORTHERN COLORADO FRONT RANGE...

CITY           SKY/WX    TMP DP  RH WIND       PRES   REMARKS
DENVER INTL AP FAIR      60  33  36 E13       30.36R
DMNS CITY PARK   N/A     60  37  43 W3        30.35R
AURORA         PTCLDY    59  29  31 SE12      30.38R
FRONT RANGE AP NOT AVBL
ERIE MUNI ARPT FAIR      61  35  38 NW5       30.35S
BOULDER MUN AP FAIR      64  36  34 N5        30.37S
CENTENNIAL     FAIR      60  32  34 SE3       30.38R
BROOMFIELD     PTCLDY    64  36  34 NW10      30.38S
FORT COLLINS   FAIR      63  36  36 CALM      30.37R
LONGMONT       FAIR      66  36  32 CALM      30.39R
$$

COZ041-046-047-076>085-087-088-290500-
...PIKES PEAK/PALMER DIVIDE AND SOUTHERN FOOTHILLS...

CITY           SKY/WX    TMP DP  RH WIND       PRES   REMARKS
COLO. SPRINGS  FAIR      64  30  27 S5        30.43R
A. F. ACADEMY  FAIR      60  30  32 SE7       30.43R
SCHRIEVER AFB  NOT AVBL
ELLICOTT       NOT AVBL
FALCON         FAIR      56  29  35 SW5       30.47R
FORT CARSON    FAIR      65  30  26 SW8       30.40R
LIMON          FAIR      54  37  52 SE6       30.40R
MONUMENT HILL  FAIR      55  30  38 S13       30.47R
TRINIDAD       FAIR      58  30  34 SW3       30.38R
$$

COZ042>045-048>051-090-091-290500-
...NORTHEAST COLORADO...

CITY           SKY/WX    TMP DP  RH WIND       PRES   REMARKS
GREELEY ARPT   FAIR      59  37  44 E7        30.36R
AKRON          FAIR      57  36  45 E9        30.37R
BURLINGTON     FAIR      57  42  57 SE9       30.36R
WRAY           FAIR      59  39  47 SE8       30.35R
STERLING       FAIR      63  39  42 SE10      30.33R
HOLYOKE        FAIR      54  39  58 SE7       30.35R
FORT MORGAN    FAIR      56  35  45 E8        30.36R
$$

COZ086-089-092>099-290500-
...SOUTHEAST COLORADO...

CITY           SKY/WX    TMP DP  RH WIND       PRES   REMARKS
PUEBLO         FAIR      61  30  31 CALM      30.32R
LA JUNTA       FAIR      65  36  34 E9        30.31R
LAMAR          FAIR      65  40  39 E10       30.30R
SPRINGFIELD      N/A     56  40  55 SE7       30.35R
$$




USA.gov is the U.S. government's official web portal to all federal, state and local government web resources and services.